IRIDIUM 94 [P]

Last updated on Thu Apr 19 2018 00:19:41 GMT+0000 (Coordinated Universal Time)

1 27374U 02005C 18108.24475940 .58469441 -85873-7 19282-4 0 9999 2 27374 86.2998 124.3001 0093641 344.5221 17.2855 16.61324468860162

Satellite not in orbit